EHI
0 0 0 0 0 0 0 0 0 0 0 0 0 0 0 0 0 0 0 0 0 0 0 0 0 0 0 0 0 0 0 0 1 2 2 2 1 0 0 0 0 0 0 0
0 0 0 0 0 0 0 0 0 0 0 0 0 0 0 0 0 0 0 0 0 0 0 0 0 0 0 0 0 0 0 0 0 1 1 1 0 0 0 0 0 0 0 0
0 0 0 0 0 0 0 0 0 0 0 0 0 0 0 0 0 0 0 0 0 0 0 0 0 0 0 0 0 0 0 0 0 0 0 0 0 0 0 0 0 0 0 0
0 0 0 0 0 0 0 0 0 0 0 0 0 0 0 0 0 0 0 0 0 0 0 0 0 0 0 0 0 0 0 0 0 0 0 0 0 0 0 0 0 0 0 0
0 0 0 0 0 0 0 0 0 0 0 0 0 0 0 0 0 0 0 0 0 0 0 0 0 0 0 0 0 0 0 0 0 0 0 0 0 0 0 0 0 0 0 0
0 0 0 0 0 0 0 0 0 0 0 0 0 0 0 0 0 0 0 0 0 0 0 0 0 0 0 0 0 0 0 0 0 0 0 0 0 0 0 0 0 0 0 0
0 0 0 0 0 0 0 0 0 0 0 0 0 0 0 0 0 0 0 0 0 0 0 0 0 0 0 0 0 0 0 0 0 0 0 0 0 0 0 0 0 0 0 0
0 0 0 0 0 0 0 0 0 0 0 0 0 0 0 0 0 0 0 0 0 0 0 0 0 0 0 0 0 0 0 0 0 0 0 0 0 0 0 0 0 0 0 0
0 0 0 0 0 0 0 0 0 0 0 0 0 0 0 0 0 0 0 0 0 0 0 0 0 0 0 0 0 0 0 0 0 0 0 0 0 0 0 0 0 0 0 0
0 0 0 0 0 0 0 0 0 0 0 0 0 0 0 0 0 0 0 0 0 0 0 0 0 0 0 0 0 0 0 0 0 0 0 0 0 0 0 0 0 0 0 0
0 0 0 0 0 0 0 0 0 0 0 0 0 0 0 0 0 0 0 0 0 0 0 0 0 0 0 0 0 0 0 0 0 0 0 0 0 0 0 0 0 0 0 0
0 0 0 0 0 0 0 0 0 0 0 0 0 0 0 0 0 0 0 0 0 0 0 0 0 0 0 0 0 0 0 0 0 0 0 0 0 0 0 0 0 0 0 0
0 0 0 0 0 0 0 0 0 0 0 0 0 0 0 0 0 0 0 0 0 0 0 0 0 0 0 0 0 0 0 0 0 0 0 0 0 0 0 0 0 0 0 0
0 0 0 0 0 0 0 0 0 0 0 0 0 0 0 0 0 0 0 0 0 0 0 0 0 0 0 0 0 0 0 0 0 0 0 0 0 0 0 0 0 0 0 0
0 0 0 0 0 0 0 0 0 0 0 0 0 0 0 0 0 0 0 0 0 0 0 0 0 0 0 0 0 0 0 0 0 0 0 0 0 0 0 0 0 0 0 0
0 0 0 0 0 0 0 0 0 0 0 0 0 0 0 0 0 0 0 0 0 0 0 0 0 0 0 0 0 0 0 0 0 0 0 0 0 0 0 0 0 0 0 0
0 0 0 0 0 0 0 0 0 0 0 0 0 0 0 0 0 0 0 0 0 0 0 0 0 0 0 0 0 0 0 0 0 0 0 0 0 0 0 0 0 0 0 0
0 0 0 0 0 0 0 0 0 0 0 0 0 0 0 0 0 0 0 0 0 0 0 0 0 0 0 0 0 0 0 0 0 0 0 0 0 0 0 0 0 0 0 0
0 0 0 0 0 0 0 0 0 0 0 0 0 0 0 0 0 0 0 0 0 0 0 0 0 0 0 0 0 0 0 0 0 0 0 0 0 0 0 0 0 0 0 0
0 0 0 0 0 0 0 0 0 0 0 0 0 0 0 0 0 0 0 0 0 0 0 0 0 0 0 0 0 0 0 0 0 0 0 0 0 0 0 0 0 0 0 0
0 0 0 0 0 0 0 0 0 0 0 0 0 0 0 0 0 0 0 0 0 0 0 0 0 0 0 0 0 0 0 0 0 0 0 0 0 0 0 0 0 0 0 0
0 0 0 0 0 0 0 0 0 0 0 0 0 0 0 0 0 0 0 0 0 0 0 0 0 0 0 0 0 0 0 0 0 0 0 0 0 0 0 0 0 0 0 0
0 0 0 0 0 0 0 0 0 0 0 0 0 0 0 0 0 0 0 0 0 0 0 0 0 0 0 0 0 0 0 0 0 0 0 0 0 0 0 0 0 0 0 0
0 0 0 0 0 0 0 0 0 0 0 0 0 0 0 0 0 0 0 0 0 0 0 0 0 0 0 0 0 0 0 0 0 0 0 0 0 0 0 0 0 0 0 0
0 0 0 0 0 0 0 0 0 0 0 0 0 0 0 0 0 0 0 0 0 0 0 0 0 0 0 0 0 0 0 0 0 0 0 0 0 0 0 0 0 0 0 0
0 0 0 0 0 0 0 0 0 0 0 0 0 0 0 0 0 0 0 0 0 0 0 0 0 0 0 0 0 0 0 0 0 0 0 0 0 0 0 0 0 0 0 0
0 0 0 0 0 0 0 0 0 0 0 0 0 0 0 0 0 0 0 0 0 0 0 0 0 0 0 0 0 0 0 0 0 0 0 0 0 0 0 0 0 0 0 0
Wind_Speed
4 4 6 12 15 15 13 9 6 6 7 12 16 15 14 14 14 14 14 13 13 11 10 9 9 9 8 7 6 4 5 4 3 3 3 3 2 2 1 1 2 3 4 4
1 1 7 12 17 15 12 10 8 8 7 12 13 10 11 14 15 15 13 12 12 12 12 12 11 11 11 11 9 8 8 7 6 5 5 5 5 4 3 3 2 2 3 3
1 3 3 8 11 10 7 9 8 8 9 14 13 14 11 12 14 13 11 9 10 9 9 9 9 8 9 8 8 9 9 8 7 7 6 6 5 5 4 4 3 2 2 2
2 4 5 3 3 4 4 5 7 6 9 12 12 12 6 6 10 11 10 8 7 7 7 7 7 7 7 7 8 8 8 7 7 7 7 6 6 6 5 4 3 3 3 3
3 3 1 3 3 3 3 3 5 7 10 12 14 6 4 9 11 9 6 5 4 4 4 5 6 6 6 7 6 7 7 7 7 6 6 7 7 6 5 4 5 4 4 5
4 3 1 4 2 0 1 2 4 6 8 10 10 7 8 13 13 10 7 4 3 3 4 5 5 5 5 6 6 6 6 5 5 6 6 6 6 5 4 4 5 5 6 7
3 2 3 5 2 1 1 3 6 5 6 5 4 4 10 13 10 7 5 4 3 4 4 4 5 5 5 5 5 4 4 5 6 6 6 6 5 5 5 5 6 6 6 6
3 2 5 3 1 3 5 4 4 4 4 5 7 8 8 9 9 8 6 4 3 4 4 4 4 4 4 4 4 2 3 4 5 6 6 5 6 6 6 6 6 6 6 6
6 6 5 3 4 3 3 3 4 4 5 5 6 6 7 8 8 7 5 4 3 3 4 5 3 2 3 4 2 2 3 4 4 4 5 5 6 6 5 6 5 5 5 5
2 4 4 3 3 3 3 4 5 6 6 4 5 7 7 7 7 7 6 5 4 3 4 5 4 3 2 2 1 1 2 2 3 3 4 5 5 5 5 5 5 5 6 6
3 4 3 5 4 4 3 3 4 4 3 4 5 6 5 6 6 6 5 4 3 3 4 5 4 3 2 0 2 1 1 1 2 2 2 3 3 3 4 3 4 4 4 4
8 8 6 6 5 3 3 2 2 3 4 5 4 5 6 6 5 5 6 5 4 4 5 5 4 4 2 1 2 2 0 1 1 2 1 1 1 2 2 2 4 5 6 5
6 6 6 3 3 3 3 2 1 2 3 4 5 4 5 5 5 6 6 6 6 6 6 5 4 4 3 2 3 3 1 0 1 1 1 1 1 2 2 3 3 4 8 9
5 6 4 4 4 4 3 1 1 2 3 3 4 5 5 5 6 7 7 7 7 7 6 5 4 5 3 3 4 3 2 1 1 1 1 2 2 2 2 2 3 4 6 9
7 6 6 5 4 3 2 1 1 3 4 5 4 5 6 6 7 8 8 8 7 6 5 4 4 4 2 4 4 4 3 2 1 1 2 2 2 3 3 3 3 3 4 5
8 5 5 5 6 5 3 2 1 2 3 4 4 6 6 6 7 7 7 7 7 7 7 6 5 4 2 4 5 4 2 3 3 2 2 2 2 3 3 3 3 3 4 4
11 8 7 6 6 5 4 4 3 3 3 3 5 5 6 6 7 8 9 8 7 6 5 5 6 5 2 4 5 4 3 3 4 3 2 2 2 2 2 2 2 3 3 4
12 12 10 10 7 6 5 4 3 3 2 3 4 4 5 6 7 8 9 9 8 6 6 7 8 5 1 4 4 4 4 3 2 2 2 2 2 2 2 2 2 2 2 3
9 10 9 9 8 7 5 4 3 3 3 2 2 3 4 5 5 6 7 7 8 8 10 11 13 5 1 3 5 4 4 4 3 2 2 2 3 2 2 2 1 2 2 2
9 9 9 8 7 6 5 4 3 3 2 1 1 3 4 6 6 6 6 5 3 4 8 10 8 4 2 2 4 3 4 4 4 3 2 2 2 2 2 2 2 2 2 2
11 9 9 8 7 6 6 4 3 3 2 1 1 2 4 5 5 5 5 5 6 7 8 10 5 4 2 1 4 3 3 4 4 3 3 3 2 2 2 2 2 2 2 2
10 10 10 8 7 6 5 4 4 3 2 2 2 2 3 5 5 5 4 4 6 11 8 5 4 5 4 2 2 3 3 4 3 3 3 3 3 3 3 3 2 2 2 2
9 9 9 8 8 6 4 4 4 4 4 3 3 3 3 4 3 3 5 5 6 11 8 5 8 10 6 3 3 3 4 4 4 4 3 3 3 3 3 3 3 3 3 3
9 9 8 7 6 5 5 5 5 4 4 4 4 4 3 3 4 3 4 9 11 11 6 8 11 10 2 3 3 4 4 4 4 3 3 3 3 3 3 3 3 3 3 3
9 8 7 7 7 6 7 5 4 4 4 3 4 4 3 4 4 4 5 6 10 9 6 8 12 8 1 1 3 3 4 4 4 4 4 3 3 4 4 4 4 4 3 3
8 8 8 9 7 6 5 4 4 4 3 3 3 4 3 3 4 4 4 5 7 8 6 5 5 5 2 1 2 3 4 4 4 4 4 4 4 4 4 4 5 4 4 4
5 5 5 4 4 5 5 5 5 5 5 5 5 4 3 3 3 3 4 4 4 5 5 5 4 4 3 2 2 3 3 4 4 4 4 4 4 4 5 5 4 4 4 4
Wind_Direction
97 83 47 32 23 26 36 36 41 28 19 0 348 345 350 359 5 14 22 27 29 31 32 33 33 32 30 29 35 59 75 65 48 37 40 31 26 7 330 262 241 226 227 228
111 100 50 35 18 16 25 23 22 21 15 346 336 342 358 5 8 12 13 18 22 28 31 32 31 31 34 38 42 54 59 50 36 28 26 18 5 358 351 333 312 265 237 234
20 316 30 24 360 360 21 28 12 10 341 332 340 343 350 359 3 3 1 5 14 18 22 25 25 28 32 33 40 50 50 42 32 28 26 14 5 9 4 350 342 322 302 267
71 48 52 294 298 336 349 31 15 351 339 341 333 314 310 2 0 352 349 355 2 7 13 14 19 25 29 31 36 41 40 34 27 25 21 13 16 15 6 359 358 352 349 339
90 86 35 326 2 356 344 343 358 345 340 343 335 326 350 360 355 339 331 334 343 355 3 10 13 12 30 29 29 34 29 23 17 16 16 17 17 10 6 9 14 13 9 12
94 103 197 268 299 306 253 322 342 340 331 337 355 19 333 331 334 329 331 330 342 353 9 13 359 4 32 24 25 22 13 10 9 15 21 20 16 13 9 18 24 30 37 32
99 125 252 253 283 133 135 269 306 311 308 321 334 266 282 306 318 322 325 333 353 3 2 350 347 8 24 18 9 352 4 18 21 20 25 26 27 26 25 31 37 35 36 30
132 148 242 245 153 168 214 250 279 287 290 300 293 291 301 316 331 339 342 339 346 347 338 335 346 5 11 357 333 351 30 35 29 25 27 29 36 32 29 31 36 27 21 17
185 208 227 217 209 224 206 246 271 273 288 299 301 309 318 324 332 335 335 329 328 327 324 325 333 347 352 330 338 37 44 36 28 30 32 31 37 33 30 30 32 24 19 13
223 260 247 241 246 259 232 234 258 270 283 291 296 304 314 320 327 332 330 327 326 326 319 314 316 321 310 321 30 90 52 24 18 24 30 35 37 35 36 28 25 21 16 9
226 252 258 265 245 247 261 263 279 296 292 296 301 307 310 314 316 319 318 314 311 294 286 288 297 298 294 189 134 125 62 17 13 19 34 47 46 37 31 30 18 10 4 356
208 206 185 221 227 222 235 266 293 313 322 324 316 307 310 308 305 309 311 311 309 297 282 283 286 283 276 200 161 154 90 4 7 10 31 60 56 36 24 5 4 10 6 359
192 174 178 204 206 206 214 243 294 317 317 317 319 314 314 308 305 311 313 316 311 299 286 282 282 276 263 205 172 163 160 111 37 31 44 57 68 54 23 355 359 15 16 16
157 132 157 198 200 198 195 196 14 351 337 326 319 321 323 318 315 320 320 315 308 300 292 282 276 273 256 193 167 158 147 124 111 69 68 74 82 80 63 40 13 354 358 16
175 169 177 185 183 181 176 158 45 350 338 335 331 333 333 331 324 320 317 319 319 315 314 309 294 287 264 178 162 156 149 135 105 90 86 86 85 78 67 56 43 16 4 5
172 166 161 166 183 190 186 185 209 297 313 316 325 327 324 320 316 317 323 334 337 327 322 321 308 297 250 170 153 147 152 154 130 109 96 92 86 83 72 61 49 37 28 9
152 170 179 188 199 201 203 208 217 249 283 304 314 319 328 335 339 340 339 338 330 317 321 328 316 310 239 167 153 148 142 137 127 106 105 112 110 105 98 84 66 50 33 30
178 182 178 180 184 196 211 224 234 250 266 291 315 337 347 348 339 330 329 332 340 346 353 347 334 321 229 164 151 143 141 138 133 133 128 125 125 125 118 105 86 71 42 40
178 172 174 180 181 182 196 216 235 254 281 300 332 336 328 327 325 323 329 344 356 353 340 337 338 346 275 180 152 143 144 142 137 134 133 136 127 130 133 130 116 102 87 69
177 173 174 180 180 180 193 211 226 251 272 278 323 339 339 334 331 332 336 335 320 304 308 323 334 339 317 199 160 151 155 153 151 149 145 148 156 159 158 156 151 138 121 106
177 174 175 180 187 194 198 196 199 228 254 253 275 305 312 315 325 330 334 328 316 325 326 331 337 331 310 224 174 162 163 161 162 165 167 168 169 170 170 170 166 161 150 138
178 176 178 179 181 193 201 192 196 213 229 245 266 290 312 321 327 325 301 277 298 323 328 320 320 315 307 229 180 177 177 173 171 170 173 174 176 179 182 179 175 171 165 158
176 177 177 180 185 191 191 196 202 206 216 229 245 263 275 284 287 295 305 303 310 321 324 310 318 318 302 193 178 183 184 183 182 184 186 186 185 184 184 183 179 174 169 163
175 178 181 177 164 168 196 217 212 211 219 234 242 244 247 279 294 268 262 297 314 321 319 321 332 331 297 170 175 181 188 192 192 192 190 187 186 183 181 177 176 176 172 163
178 174 167 163 174 196 208 208 205 219 227 243 258 257 240 222 241 276 297 303 315 325 324 331 344 349 6 184 186 188 192 198 197 191 189 188 189 188 185 181 178 176 173 169
179 182 185 190 193 194 188 182 195 212 212 234 257 256 250 246 254 268 285 300 314 325 327 323 329 337 323 257 217 205 200 203 204 199 199 196 194 189 187 187 184 178 175 170
186 184 181 193 204 195 184 183 197 211 207 208 230 242 239 249 264 278 291 302 313 318 320 321 322 320 309 282 250 228 211 203 199 198 196 194 190 192 191 188 183 176 169 166